Osaka Airport, Japan

6:57 AM JST on June 28, 2017 (GMT +0900)
Osaka International

Weather History for RJOO - November, 2013

Change the Weather History Date:

Sunday, November 3, 2013

  Actual Average Record
Temperature  
Mean Temperature 62 °F -  
Max Temperature 64 °F 60 °F 75 °F (2011)
Min Temperature 59 °F 44 °F 39 °F (2002)
Degree Days  
Heating Degree Days 4    
Growing Degree Days 12 (Base 50)    
Moisture  
Dew Point 59 °F    
Average Humidity 87    
Maximum Humidity 94    
Minimum Humidity 68    
Precipitation  
Precipitation 0.00 in - - ()
Sea Level Pressure  
Sea Level Pressure 30.03 in    
Wind  
Wind Speed 3 mph ()    
Max Wind Speed 7 mph    
Max Gust Speed -    
Visibility 2.7 miles    
Events Rain    
Averages and records for this station are not official NWS values.
T = Trace of Precipitation, MM = Missing Value Source: Averaged Metar Reports

Daily Weather History Graph

Daily Weather History Graph

Search for Another Location

Airport or City:

Trip Planner

Search our weather history database for the weather conditions in past years. The results will help you decide how hot, cold, wet, or windy it might be!

Date:

Astronomy

Nov. 03, 2013 Rise Set
Actual Time 6:20 AM JST 5:02 PM JST
Civil Twilight 5:54 AM JST 5:28 PM JST
Nautical Twilight 5:24 AM JST 5:58 PM JST
Astronomical Twilight 4:54 AM JST 6:28 PM JST
Moon 5:43 AM JST (11/3) 4:49 PM JST (11/3)
Length of Visible Light 11h 34m
Length of Day
10h 42m
Waning Crescent, 0% of the Moon is Illuminated
Nov 3
Waning Crescent
Nov 3
New
Nov 10
First Quarter
Nov 18
Full
Nov 26
Last Quarter

Hourly Weather History & Observations

Time (JST) Temp. Dew Point Humidity Pressure Visibility Wind Dir Wind Speed Gust Speed Precip Events Conditions
5:00 AM 59.0 °F 53.6 °F 82% 30.12 in 6.2 mi Variable 2.3 mph - N/A   Scattered Clouds
6:00 AM 60.8 °F 53.6 °F 77% 30.12 in 6.2 mi NW 3.5 mph - N/A   Mostly Cloudy
7:00 AM 60.8 °F 55.4 °F 82% 30.12 in 6.2 mi Calm Calm - N/A   Mostly Cloudy
8:00 AM 62.6 °F 53.6 °F 72% 30.12 in 5.6 mi ENE 3.5 mph - N/A   Mostly Cloudy
9:00 AM 62.6 °F 53.6 °F 72% 30.12 in 5.6 mi NNE 3.5 mph - N/A   Mostly Cloudy
10:00 AM 64.4 °F 53.6 °F 68% 30.09 in 5.0 mi Variable 2.3 mph - N/A   Mostly Cloudy
11:00 AM 64.4 °F 53.6 °F 68% 30.09 in 5.0 mi ENE 4.6 mph - N/A   Mostly Cloudy
12:00 PM 62.6 °F 57.2 °F 82% 30.06 in 2.8 mi NW 5.8 mph - N/A Rain Light Rain
12:07 PM 62.6 °F 59.0 °F 88% 30.06 in 1.9 mi NW 6.9 mph - N/A Rain Light Rain
12:17 PM 62.6 °F 59.0 °F 88% 30.06 in 2.5 mi NNW 6.9 mph - N/A Rain Light Rain
1:00 PM 62.6 °F 59.0 °F 88% 30.04 in 2.2 mi Variable 1.2 mph - N/A Rain Light Rain
2:00 PM 64.4 °F 59.0 °F 83% 30.04 in 2.2 mi East 3.5 mph - N/A   Mostly Cloudy
3:00 PM 64.4 °F 59.0 °F 83% 30.01 in 2.2 mi Variable 2.3 mph - N/A Rain Light Rain
3:20 PM 64.4 °F 60.8 °F 88% 30.01 in 1.9 mi East 3.5 mph - N/A Rain Light Rain
4:00 PM 62.6 °F 60.8 °F 94% 30.01 in 2.2 mi NE 3.5 mph - N/A Rain Light Rain
4:23 PM 62.6 °F 59.0 °F 88% 30.01 in 1.6 mi NE 3.5 mph - N/A Rain Light Rain
4:38 PM 62.6 °F 59.0 °F 88% 30.01 in 1.2 mi Variable 2.3 mph - N/A Rain Light Rain
5:00 PM 62.6 °F 60.8 °F 94% 30.01 in 1.2 mi East 4.6 mph - N/A Rain Light Rain
5:12 PM 62.6 °F 59.0 °F 88% 30.01 in 1.6 mi ESE 3.5 mph - N/A Rain Light Rain
5:35 PM 62.6 °F 60.8 °F 94% 30.01 in 1.9 mi Variable 2.3 mph - N/A Rain Light Rain
6:00 PM 62.6 °F 60.8 °F 94% 30.01 in 1.6 mi NE 3.5 mph - N/A Rain Light Rain
6:14 PM 62.6 °F 60.8 °F 94% 30.01 in 2.2 mi NE 3.5 mph - N/A Rain Light Rain
7:00 PM 62.6 °F 60.8 °F 94% 29.98 in 1.9 mi Variable 2.3 mph - N/A Rain Light Rain
7:10 PM 62.6 °F 60.8 °F 94% 29.98 in 1.6 mi ESE 3.5 mph - N/A Rain Light Rain
7:28 PM 62.6 °F 60.8 °F 94% 29.98 in 1.2 mi Variable 1.2 mph - N/A Rain Rain
7:39 PM 62.6 °F 60.8 °F 94% 29.98 in 1.2 mi NNE 3.5 mph - N/A Rain Rain
8:00 PM 62.6 °F 60.8 °F 94% 29.98 in 1.2 mi North 5.8 mph - N/A Rain Rain
8:23 PM 62.6 °F 60.8 °F 94% 29.98 in 1.6 mi NNW 5.8 mph - N/A Rain Rain Showers
8:30 PM 62.6 °F 60.8 °F 94% 29.98 in 2.2 mi NNE 3.5 mph - N/A Rain Rain Showers
8:46 PM 62.6 °F 60.8 °F 94% 29.98 in 1.9 mi Variable 1.2 mph - N/A Rain Rain Showers